Location: Prairie Dale
(45.6972°N, 104.5033°W)
Time: 21:00:12
(UTC+00:00)

EO-79 - Pass Details

Date: 05 July 2022
Orbit: 588 x 603 km, 98.0° (Epoch: 11 August)

Event Time Altitude Azimuth Distance (km) Brightness Sun altitude
Rises 09:39:55 0° 2° (N) 2,859 ? -12.8°
Reaches altitude 10° 09:42:21 10° 350° (N) 1,954 ? -12.5°
Maximum altitude 09:45:52 26° 294° (WNW) 1,198 ? -12.2°
Enters shadow 09:48:32 14° 245° (WSW) 1,671 ? -11.9°
